Volver al catálogo

COSMOS 1818 COOLANT

LostLEO
NORAD 50771·DEBRIS·🇷🇺 Russia

Lanzado Feb 1, 1987 desde Baikonur Cosmodrome

Loading…

Próximos Pases (próximas 24 horas)

TLE

ObsoletoSource: Space-Track

Época: Jul 28, 2022, 10:20 UTC

1 50771U 87011AL  22209.43107483  .00000136  00000-0  83913-4 0  9990
2 50771  65.0089 228.8094 0015931 250.4878 109.4487 14.34410661614921

Sigue COSMOS 1818 COOLANT en tiempo real con AllMySat

Download on the App Store